Location: Unspecified
(0.0000°N, 0.0000°E)
Time: 22:30:49
(UTC+00:00)

Vanguard 3 - All Passes

Search period start: 17 June 2018 00:00
Search period end: 27 June 2018 00:00
Orbit: 508 x 3264 km, 33.3° (Epoch: 17 June)

Date Brightness Start Highest point End Pass type
(mag) Time Alt. Az. Time Alt. Az. Time Alt. Az.
17 Jun - 01:45:11 10° WNW 01:48:00 17° NNW 01:51:32 10° NNE visible
17 Jun - 08:28:24 10° NNW 08:40:56 28° NNE 08:56:16 10° E daylight
17 Jun - 10:40:37 10° NW 10:59:01 66° NE 11:17:42 10° ESE daylight
17 Jun - 12:56:52 10° WNW 13:16:27 60° SW 13:32:01 10° SE daylight
17 Jun - 15:21:04 10° WSW 15:33:11 22° SSW 15:42:23 10° SSE daylight
17 Jun - 22:20:18 10° S 22:22:33 14° SSE 22:24:39 10° ESE night (unlit)
18 Jun - 00:30:37 10° W 00:34:01 36° NNW 00:38:09 10° NE night (unlit)
18 Jun - 07:15:32 10° N 07:23:31 17° NNE 07:33:21 10° ENE daylight
18 Jun - 09:25:54 10° NNW 09:41:38 46° NE 10:00:07 10° ESE daylight
18 Jun - 11:39:46 10° NW 11:59:17 83° SW 12:17:17 10° SE daylight
18 Jun - 13:59:27 10° W 14:16:29 36° SW 14:29:34 10° SSE daylight
18 Jun - 16:31:50 10° SW 16:34:04 10° SSW 16:36:09 10° SSW daylight
18 Jun - 23:16:50 10° SW 23:20:38 67° SE 23:24:25 10° ENE night (unlit)
19 Jun - 01:31:44 10° NW 01:32:40 11° NNW 01:33:39 10° N visible
19 Jun - 08:12:09 10° NNW 08:24:29 30° NE 08:40:19 10° E daylight
19 Jun - 10:24:04 10° NW 10:41:55 73° NE 11:01:18 10° ESE daylight
19 Jun - 12:40:23 10° WNW 12:59:28 54° SW 13:15:40 10° SE daylight
19 Jun - 15:05:17 10° WSW 15:17:03 20° SSW 15:26:20 10° SSE daylight
19 Jun - 22:03:38 10° SSW 22:07:07 22° SSE 22:10:05 10° E night (unlit)
20 Jun - 00:15:35 10° W 00:18:35 23° NNW 00:21:53 10° NNE night (unlit)
20 Jun - 06:59:35 10° N 07:07:34 18° NNE 07:17:43 10° ENE daylight
20 Jun - 09:09:31 10° NW 09:24:44 51° NE 09:43:46 10° ESE daylight
20 Jun - 11:23:17 10° WNW 11:42:09 76° SW 12:00:47 10° SE daylight
20 Jun - 13:43:20 10° W 13:59:54 33° SSW 14:13:17 10° SSE daylight
20 Jun - 16:16:08 10° SSW 16:18:30 10° SSW 16:20:44 10° SSW daylight
20 Jun - 20:51:20 10° S 20:52:53 11° SSE 20:54:17 10° SE visible
20 Jun - 23:01:08 10° WSW 23:05:10 76° NW 23:08:51 10° NE night (unlit)
21 Jun - 07:55:57 10° NNW 08:07:58 33° NE 08:24:10 10° E daylight
21 Jun - 10:07:40 10° NW 10:24:48 80° NE 10:44:44 10° ESE daylight
21 Jun - 12:24:05 10° WNW 12:42:32 48° SW 12:59:12 10° SE daylight
21 Jun - 14:49:36 10° WSW 15:01:01 19° SSW 15:10:18 10° SSE daylight
21 Jun - 21:47:13 10° SW 21:51:42 34° SSE 21:55:10 10° E night (unlit)
22 Jun - 00:00:51 10° WNW 00:03:07 15° NNW 00:05:26 10° N night (unlit)
22 Jun - 06:43:34 10° N 06:51:33 19° NNE 07:01:59 10° ENE daylight
22 Jun - 08:53:15 10° NW 09:07:49 56° NE 09:27:13 10° ESE daylight
22 Jun - 11:06:58 10° WNW 11:25:02 68° SW 11:44:09 10° SE daylight
22 Jun - 13:27:24 10° W 13:43:23 30° SSW 13:56:57 10° SSE daylight
22 Jun - 15:59:50 10° SSW 16:03:01 11° SSW 16:05:57 10° S daylight
22 Jun - 20:33:31 10° SSW 20:37:33 17° SSE 20:40:40 10° ESE visible
22 Jun - 22:45:30 10° WSW 22:49:40 48° NW 22:53:12 10° NE night (unlit)
23 Jun - 07:39:49 10° NNW 07:51:24 36° NE 08:07:51 10° E daylight
23 Jun - 09:51:26 10° NW 10:07:42 88° NE 10:27:59 10° SE daylight
23 Jun - 12:08:00 10° W 12:25:40 44° SSW 12:42:37 10° SE daylight
23 Jun - 14:34:01 10° WSW 14:45:05 18° SSW 14:54:20 10° SSE daylight
23 Jun - 19:19:55 10° S 19:22:37 12° SSE 19:24:56 10° SE visible
23 Jun - 21:30:53 10° SW 21:36:16 53° SSE 21:40:04 10° ENE night (unlit)
23 Jun - 23:47:13 10° NW 23:47:35 10° NNW 23:47:58 10° NNW night (unlit)
24 Jun - 06:27:33 10° N 06:35:26 21° NE 06:46:08 10° ENE daylight
24 Jun - 08:37:06 10° NW 08:50:54 63° NE 09:10:29 10° ESE daylight
24 Jun - 10:50:51 10° WNW 11:08:00 61° SW 11:27:21 10° SE daylight
24 Jun - 13:11:40 10° WSW 13:26:59 27° SSW 13:40:34 10° SSE daylight
24 Jun - 15:43:10 10° SSW 15:47:35 11° SSW 15:51:33 10° S daylight
24 Jun - 20:16:25 10° SSW 20:22:13 26° SSE 20:26:11 10° E visible
24 Jun - 22:29:55 10° WSW 22:34:06 32° NW 22:37:29 10° NNE night (unlit)
25 Jun - 07:23:46 10° NNW 07:34:49 40° NE 07:51:20 10° ESE daylight
25 Jun - 09:35:21 10° WNW 09:50:41 84° SW 10:11:04 10° SE daylight
25 Jun - 11:52:08 10° W 12:08:56 39° SSW 12:25:55 10° SSE daylight
25 Jun - 14:18:28 10° SW 14:29:15 17° SSW 14:38:28 10° SSE daylight
25 Jun - 16:48:57 10° S 16:50:02 10° S 16:51:03 10° S daylight
25 Jun - 19:01:42 10° SSW 19:07:19 17° SSE 19:11:26 10° ESE visible
25 Jun - 21:14:36 10° SW 21:20:47 80° SE 21:24:48 10° ENE visible
26 Jun - 06:11:33 10° N 06:19:17 22° NE 06:30:10 10° E daylight
26 Jun - 08:21:04 10° NW 08:34:02 70° NE 08:53:35 10° ESE daylight
26 Jun - 10:34:55 10° WNW 10:51:07 55° SSW 11:10:25 10° SE daylight
26 Jun - 12:56:07 10° WSW 13:10:43 25° SSW 13:24:10 10° SSE daylight
26 Jun - 15:26:16 10° SSW 15:32:10 12° S 15:37:18 10° SSE daylight
26 Jun - 17:46:17 10° SSW 17:51:33 14° S 17:55:44 10° SE daylight
26 Jun - 19:59:27 10° SW 20:06:47 37° SSE 20:11:22 10° E visible
26 Jun - 22:14:24 10° W 22:18:28 24° NW 22:21:40 10° NNE night (unlit)
